Simultaneous Nadir Overpasses (SNOs) Predictions

Prediction of SNOs between AQUA and METOP-B Satellite Orbit:

Table of predicted SNOs for the next 14.0 days since TLE Epoch: 1/17/2014
Index Date (AQUA) Time (AQUA) Lat,Lon (AQUA) SZA (AQUA ) Date (METOP-B) Time (METOP-B) Lat,Lon (METOP-B) SZA (METOP-B ) Distance(km) Time Diff (sec)
1 01/20/2014 00:22:42 73.67, 168.89 93.91 01/20/2014 00:21:29 73.65, 168.90 93.91 2.24 73
2 01/20/2014 01:12:09 -73.75, -23.62 86.02 01/20/2014 01:12:09 -73.72, -23.61 86.04 2.67 0
3 01/20/2014 02:01:37 73.77, 143.96 94.00 01/20/2014 02:02:48 73.78, 143.86 94.01 3.52 71
4 01/22/2014 19:57:00 73.67,-124.67 93.29 01/22/2014 19:55:51 73.65,-124.70 93.28 2.57 69
5 01/22/2014 20:46:27 -73.74, 42.82 86.65 01/22/2014 20:46:31 -73.72, 42.78 86.67 2.92 4
6 01/22/2014 21:35:56 73.82,-149.71 93.43 01/22/2014 21:37:09 73.83,-149.62 93.43 2.91 73
7 01/25/2014 15:31:18 73.70, -58.30 92.65 01/25/2014 15:30:12 73.69, -58.20 92.65 3.33 66
8 01/25/2014 16:20:45 -73.77, 109.20 87.29 01/25/2014 16:20:52 -73.75, 109.28 87.31 3.12 7
9 01/25/2014 17:10:17 74.00, -83.70 92.96 01/25/2014 17:11:28 73.96, -82.88 92.88 25.55 71
10 01/28/2014 11:05:34 73.66, 8.22 91.89 01/28/2014 11:04:34 73.67, 8.18 91.92 2.12 60
11 01/28/2014 11:55:00 -73.73, 175.72 88.05 01/28/2014 11:55:13 -73.74, 175.66 88.04 2.48 13
12 01/28/2014 12:44:36 74.17, -17.65 92.43 01/28/2014 12:45:45 74.15, -16.02 92.33 49.63 69
13 01/31/2014 06:39:50 73.71, 74.56 91.18 01/31/2014 06:38:54 73.70, 74.66 91.19 3.08 56
14 01/31/2014 07:29:17 -73.77,-117.93 88.76 01/31/2014 07:29:34 -73.77,-117.86 88.77 2.21 17




NCC Satellite Simultaneous Nadir Overpasses (SNOs) Prediction Service
